User: anonymous   Login
Location: Caltech
(34.1382°N, 118.1253°W)
Time: 11:12:58
(UTC-07:00)
Language:

Cosmos 1408 Rocket - Orbit

View from above orbital plane
View from above orbital plane
View from above satellite
View from above satellite

Ground track
Ground track

The orbit data is extracted from the following two-line orbital elements,

1 13553U 82092B   15149.17181476  .00000187  00000-0  19511-4 0  9990
2 13553 082.5700 212.7495 0021616 007.3685 022.1224 14.83899824765801
Epoch (UTC): 29 May 2015 04:07:24
Eccentricity: 0.0021616
inclination: 82.5700°
perigee height: 602 km
apogee height: 632 km
right ascension of ascending node: 212.7495°
argument of perigee: 7.3685°
revolutions per day: 14.83899824
mean anomaly at epoch: 22.1224°
orbit number at epoch: 76580

The dashed part of the orbit path shows where the satellite is in the earth's shadow,  

DLR